When you browse on this site, cookies collect data to enhance your experience and personalize the content and advertising you see.
Visit our Privacy Policy to learn more. By continuing to use the site, you agree to this use of cookies and data.
  • In Spain
  • List of Countries
  • For 7 days
  • Water Temperature
  • Satellite Maps
  • Weather Map
  • Weather Widgets
  • user-avatar
    Login

    Hourly Weather Shillong

    Today, 18 July, Thursday

    Time Temperature Precipitation Wind Pressure Humidity
    00:00 +18°C° 0 mm 0 mps 628 mmHg 93%
    01:00 +17°C° 0 mm 0 mps 628 mmHg 93%
    02:00 +17°C° 0 mm 0 mps 627 mmHg 93%
    03:00 +17°C° 0 mm 0 mps 627 mmHg 93%
    04:00 +17°C° 0 mm 0 mps 627 mmHg 93%
    05:00 +18°C° 0 mm 0 mps 627 mmHg 92%
    06:00 +18°C° 0 mm 0 mps 628 mmHg 94%
    07:00 +20°C° 0 mm 0 mps 628 mmHg 86%
    08:00 +24°C° 0 mm 1 mps 629 mmHg 78%
    09:00 +26°C° 0 mm 1 mps 630 mmHg 69%
    10:00 +27°C° 0.1 mm 1 mps 630 mmHg 66%
    11:00 +28°C° 0.1 mm 1 mps 630 mmHg 64%
    12:00 +29°C° 0.1 mm 1 mps 630 mmHg 61%
    13:00 +28°C° 1 mm 1 mps 629 mmHg 66%
    14:00 +27°C° 1 mm 1 mps 628 mmHg 72%
    15:00 +27°C° 1 mm 1 mps 628 mmHg 77%
    16:00 +26°C° 0.8 mm 1 mps 627 mmHg 82%
    17:00 +25°C° 0.8 mm 1 mps 627 mmHg 86%
    18:00 +24°C° 0.8 mm 1 mps 627 mmHg 91%
    19:00 +23°C° 0.1 mm 1 mps 627 mmHg 92%
    20:00 +22°C° 0.1 mm 1 mps 627 mmHg 93%
    21:00 +21°C° 0.1 mm 1 mps 627 mmHg 94%
    22:00 +21°C° 0.2 mm 1 mps 627 mmHg 94%
    23:00 +21°C° 0.2 mm 1 mps 627 mmHg 94%

    Tomorrow, 19 July, Friday

    Time Temperature Precipitation Wind Pressure Humidity
    00:00 +20°C° 0.2 mm 1 mps 627 mmHg 94%
    01:00 +20°C° 0 mm 1 mps 627 mmHg 94%
    02:00 +20°C° 0 mm 1 mps 627 mmHg 95%
    03:00 +20°C° 0 mm 1 mps 626 mmHg 96%
    04:00 +20°C° 0.1 mm 1 mps 627 mmHg 96%
    05:00 +20°C° 0.1 mm 1 mps 627 mmHg 96%
    06:00 +20°C° 0.1 mm 1 mps 628 mmHg 96%
    07:00 +22°C° 0.1 mm 1 mps 629 mmHg 91%
    08:00 +23°C° 0.1 mm 1 mps 629 mmHg 85%
    09:00 +24°C° 0.1 mm 1 mps 630 mmHg 80%
    10:00 +26°C° 0.1 mm 1 mps 631 mmHg 73%
    11:00 +27°C° 0.1 mm 1 mps 631 mmHg 67%
    12:00 +29°C° 0.1 mm 1 mps 631 mmHg 60%
    13:00 +28°C° 1 mm 1 mps 630 mmHg 69%
    14:00 +26°C° 1 mm 1 mps 629 mmHg 78%
    15:00 +25°C° 1 mm 2 mps 628 mmHg 86%
    16:00 +24°C° 1.1 mm 1 mps 628 mmHg 90%
    17:00 +23°C° 1.1 mm 1 mps 628 mmHg 93%
    18:00 +23°C° 1.1 mm 1 mps 627 mmHg 96%
    19:00 +22°C° 0.2 mm 1 mps 627 mmHg 97%
    20:00 +22°C° 0.2 mm 1 mps 628 mmHg 97%
    21:00 +21°C° 0.2 mm 1 mps 628 mmHg 97%
    22:00 +20°C° 0.5 mm 2 mps 628 mmHg 97%
    23:00 +20°C° 0.5 mm 2 mps 628 mmHg 97%

    Day after tomorrow, 20 July, Saturday

    Time Temperature Precipitation Wind Pressure Humidity
    00:00 +19°C° 0.5 mm 2 mps 628 mmHg 96%
    01:00 +19°C° 0.1 mm 2 mps 628 mmHg 96%
    02:00 +19°C° 0.1 mm 2 mps 628 mmHg 96%
    03:00 +19°C° 0.1 mm 2 mps 628 mmHg 96%
    04:00 +19°C° 0.1 mm 2 mps 628 mmHg 96%
    05:00 +19°C° 0.1 mm 2 mps 628 mmHg 96%
    06:00 +19°C° 0.1 mm 2 mps 628 mmHg 95%
    07:00 +20°C° 0 mm 2 mps 629 mmHg 91%
    08:00 +22°C° 0 mm 1 mps 630 mmHg 86%
    09:00 +23°C° 0 mm 1 mps 630 mmHg 82%
    10:00 +24°C° 0.6 mm 2 mps 630 mmHg 82%
    11:00 +25°C° 0.6 mm 2 mps 630 mmHg 82%
    12:00 +25°C° 0.6 mm 2 mps 630 mmHg 82%
    13:00 +25°C° 1.1 mm 2 mps 629 mmHg 82%
    14:00 +25°C° 1.1 mm 2 mps 629 mmHg 83%
    15:00 +25°C° 1.1 mm 2 mps 628 mmHg 84%
    16:00 +24°C° 0.5 mm 2 mps 628 mmHg 87%
    17:00 +24°C° 0.5 mm 1 mps 628 mmHg 90%
    18:00 +23°C° 0.5 mm 1 mps 628 mmHg 94%
    19:00 +22°C° 0.2 mm 1 mps 628 mmHg 95%
    20:00 +22°C° 0.2 mm 1 mps 628 mmHg 95%
    21:00 +21°C° 0.2 mm 1 mps 628 mmHg 96%
    22:00 +21°C° 0.2 mm 1 mps 628 mmHg 96%
    23:00 +20°C° 0.2 mm 2 mps 628 mmHg 97%

    21 July, Sunday

    Time Temperature Precipitation Wind Pressure Humidity
    00:00 +20°C° 0.2 mm 2 mps 628 mmHg 97%
    01:00 +20°C° 0.2 mm 2 mps 628 mmHg 96%
    02:00 +20°C° 0.2 mm 2 mps 627 mmHg 96%
    03:00 +20°C° 0.2 mm 2 mps 627 mmHg 96%
    04:00 +21°C° 0.4 mm 1 mps 627 mmHg 96%
    05:00 +20°C° 0.4 mm 1 mps 627 mmHg 96%
    06:00 +20°C° 0.4 mm 1 mps 627 mmHg 97%
    07:00 +21°C° 1.8 mm 1 mps 628 mmHg 96%
    08:00 +21°C° 1.8 mm 1 mps 628 mmHg 96%
    09:00 +22°C° 1.8 mm 1 mps 629 mmHg 95%
    10:00 +22°C° 1.9 mm 1 mps 629 mmHg 95%
    11:00 +22°C° 1.9 mm 1 mps 629 mmHg 95%
    12:00 +22°C° 1.9 mm 1 mps 629 mmHg 95%
    13:00 +22°C° 0.5 mm 1 mps 628 mmHg 94%
    14:00 +22°C° 0.5 mm 1 mps 628 mmHg 93%
    15:00 +22°C° 0.5 mm 1 mps 627 mmHg 92%
    16:00 +22°C° 0.1 mm 1 mps 627 mmHg 93%
    17:00 +21°C° 0.1 mm 1 mps 627 mmHg 94%
    18:00 +21°C° 0.1 mm 1 mps 627 mmHg 95%
    19:00 +21°C° 0.1 mm 1 mps 627 mmHg 95%
    20:00 +20°C° 0.1 mm 1 mps 627 mmHg 95%
    21:00 +20°C° 0.1 mm 1 mps 628 mmHg 95%
    22:00 +20°C° 0.1 mm 1 mps 627 mmHg 95%
    23:00 +20°C° 0.1 mm 1 mps 627 mmHg 95%

    22 July, Monday

    Time Temperature Precipitation Wind Pressure Humidity
    00:00 +20°C° 0.1 mm 1 mps 627 mmHg 95%
    01:00 +20°C° 0.2 mm 1 mps 627 mmHg 96%
    02:00 +20°C° 0.2 mm 1 mps 627 mmHg 96%
    03:00 +20°C° 0.2 mm 1 mps 626 mmHg 96%
    04:00 +20°C° 0.6 mm 1 mps 627 mmHg 96%
    05:00 +20°C° 0.6 mm 1 mps 627 mmHg 96%
    06:00 +20°C° 0.6 mm 1 mps 627 mmHg 95%
    07:00 +20°C° 1.6 mm 1 mps 627 mmHg 95%
    08:00 +21°C° 1.6 mm 1 mps 628 mmHg 95%
    09:00 +21°C° 1.6 mm 1 mps 628 mmHg 95%
    10:00 +21°C° 0.2 mm 1 mps 628 mmHg 93%
    11:00 +21°C° 0.2 mm 1 mps 628 mmHg 91%
    12:00 +21°C° 0.2 mm 1 mps 628 mmHg 89%
    13:00 +22°C° 0.2 mm 1 mps 628 mmHg 89%
    14:00 +22°C° 0.2 mm 1 mps 627 mmHg 89%
    15:00 +22°C° 0.2 mm 1 mps 627 mmHg 88%
    16:00 +21°C° 0.1 mm 1 mps 627 mmHg 90%
    17:00 +21°C° 0.1 mm 1 mps 627 mmHg 92%
    18:00 +21°C° 0.1 mm 1 mps 626 mmHg 93%
    19:00 +20°C° 0 mm 1 mps 627 mmHg 93%
    20:00 +20°C° 0 mm 1 mps 627 mmHg 92%
    21:00 +20°C° 0 mm 1 mps 627 mmHg 91%
    22:00 +20°C° 0 mm 1 mps 627 mmHg 88%
    23:00 +20°C° 0 mm 1 mps 627 mmHg 86%

    23 July, Tuesday

    Time Temperature Precipitation Wind Pressure Humidity
    00:00 +20°C° 0 mm 1 mps 627 mmHg 83%
    01:00 +20°C° 0 mm 1 mps 627 mmHg 83%
    02:00 +20°C° 0 mm 1 mps 626 mmHg 83%
    03:00 +20°C° 0 mm 1 mps 626 mmHg 83%
    04:00 +18°C° 0.1 mm 0 mps 626 mmHg 84%
    05:00 +18°C° 0.1 mm 0 mps 626 mmHg 85%
    06:00 +18°C° 0.1 mm 0 mps 626 mmHg 87%
    07:00 +19°C° 0.4 mm 0 mps 627 mmHg 85%
    08:00 +19°C° 0.4 mm 0 mps 627 mmHg 83%
    09:00 +20°C° 0.4 mm 0 mps 628 mmHg 81%
    10:00 +21°C° 0.2 mm 0 mps 628 mmHg 80%
    11:00 +24°C° 0.2 mm 1 mps 628 mmHg 79%
    12:00 +25°C° 0.2 mm 1 mps 628 mmHg 77%
    13:00 +24°C° 1 mm 1 mps 627 mmHg 81%
    14:00 +24°C° 1 mm 1 mps 627 mmHg 85%
    15:00 +24°C° 1 mm 1 mps 626 mmHg 88%
    16:00 +23°C° 1.2 mm 1 mps 626 mmHg 91%
    17:00 +22°C° 1.2 mm 1 mps 626 mmHg 93%
    18:00 +22°C° 1.2 mm 1 mps 626 mmHg 96%
    19:00 +21°C° 0.5 mm 1 mps 626 mmHg 96%
    20:00 +21°C° 0.5 mm 1 mps 626 mmHg 96%
    21:00 +20°C° 0.5 mm 1 mps 627 mmHg 96%
    22:00 +20°C° 0.3 mm 1 mps 626 mmHg 95%
    23:00 +20°C° 0.3 mm 1 mps 626 mmHg 95%
    Show more